Location: Unspecified
(0.0000°N, 0.0000°E)
Time: 01:37:39
(UTC+02:00)

Transit 2A - Visible Passes

Search period start: 24 April 2017 00:00
Search period end: 04 May 2017 00:00
Orbit: 602 x 958 km, 66.7° (Epoch: 22 April)

Date Brightness Start Highest point End Pass type
(mag) Time Alt. Az. Time Alt. Az. Time Alt. Az.
29 Apr 7.9 22:00:19 10° SSW 22:01:51 19° SSW 22:01:51 19° SSW visible
30 Apr 5.7 21:26:21 10° SSW 21:31:33 67° ESE 21:32:57 44° NE visible
01 May 6.3 20:52:42 10° S 20:57:32 38° ESE 21:01:55 10° NE visible
01 May 8.9 22:39:13 10° W 22:40:16 11° WNW 22:41:19 10° WNW visible
02 May 7.0 20:19:30 10° SSE 20:23:29 22° ESE 20:27:12 10° ENE visible
02 May 8.4 22:02:50 10° WSW 22:06:22 19° WNW 22:09:43 10° NNW visible
03 May 7.5 21:27:54 10° SW 21:32:28 33° WNW 21:36:39 10° N visible
